Starlink 5159

operational
NORAD ID: 53974 Int'l Des: 2022-125 Owner: SPXS Country: US Constellation: starlink
LEOCIRCULAR

About Starlink 5159

Description loading...

Live Position

Loading 3D Globe...

Upcoming Passes

Altitude History

Altitude vs Time

uPlot chart will show altitude changes over time

Two-Line Element Set

1 53974U 22125L 25348.07496980 -.00000521 00000-0 -14612-4 0 9993
2 53974 53.2167 228.0635 0001576 91.9590 268.1583 15.08837354176687
Epoch: Dec 14, 2025 • Age: 19 hours

Current Status

Altitude 556.2 km
Velocity 7.58 km/s
Sub-Earth Point -45.44°S, 142.75°E
Launch Date Oct 5, 2022
Age 3.1 years
Type internet

Technical Details

Classification Payload
Mass 305.00 kg
Dry Mass 290.00 kg
Total Mass 305.00 kg
Length 0.20 m
Diameter 2.80 m
Span 9.00 m
Shape Box + pan
Manufacturer SPXS
Bus Type Starlink
Phase Status In Orbit
Owner/State SPXS/US

Large Constellations

Loading constellations...